Precipitable_Water
1.46 1.53 1.48 1.52 1.57 1.59 1.56 1.61 1.73 1.80 1.79 1.78 1.81 1.82 1.74 1.69 1.83 1.99 2.09 2.15 2.20 1.60 1.70 1.81 1.95 1.89 1.67 1.61 1.61 1.47 1.31 1.35 1.26 1.42 1.63 1.72 1.74 1.87 2.04 2.04 2.31 2.28 2.25
1.38 1.47 1.50 1.60 1.64 1.63 1.61 1.62 1.60 1.59 1.68 1.67 1.71 1.74 1.71 1.77 1.91 1.92 1.89 2.01 2.00 1.74 1.59 1.63 1.83 2.08 1.84 1.69 1.55 1.47 1.37 1.33 1.25 1.10 1.33 1.44 1.60 1.83 1.94 2.04 2.09 2.20 2.17
1.31 1.42 1.45 1.53 1.61 1.62 1.57 1.59 1.61 1.61 1.58 1.64 1.71 1.65 1.64 1.67 1.78 1.89 1.91 1.80 1.76 1.68 1.58 1.71 1.83 1.88 1.80 1.84 1.77 1.57 1.55 1.55 1.52 1.39 1.25 1.36 1.39 1.75 1.79 1.98 2.07 2.04 2.11
1.29 1.35 1.40 1.47 1.56 1.54 1.45 1.50 1.52 1.60 1.62 1.68 1.73 1.69 1.68 1.74 1.70 1.59 1.54 1.53 1.55 1.58 1.62 1.66 1.64 1.65 1.66 1.68 1.74 1.67 1.64 1.65 1.66 1.55 1.38 1.27 1.24 1.38 1.65 1.61 1.70 2.02 2.02
1.26 1.32 1.39 1.43 1.52 1.53 1.51 1.58 1.58 1.63 1.68 1.75 1.75 1.63 1.52 1.48 1.46 1.45 1.45 1.40 1.32 1.29 1.33 1.42 1.47 1.55 1.59 1.62 1.64 1.68 1.75 1.60 1.56 1.44 1.32 1.23 1.12 1.18 1.22 1.47 1.55 1.71 1.85
1.26 1.31 1.40 1.44 1.47 1.52 1.57 1.62 1.66 1.78 1.76 1.60 1.53 1.58 1.57 1.53 1.42 1.37 1.27 1.23 1.31 1.31 1.25 1.30 1.35 1.39 1.45 1.58 1.64 1.68 1.76 1.64 1.51 1.51 1.18 1.06 1.14 1.19 1.40 1.30 1.31 1.31 1.16
1.25 1.32 1.40 1.48 1.53 1.64 1.71 1.67 1.78 1.48 1.47 1.46 1.29 1.07 0.97 1.03 1.08 1.05 1.04 0.99 0.94 0.92 0.94 1.02 1.22 1.39 1.44 1.44 1.47 1.65 1.57 1.60 1.59 1.52 1.25 1.13 1.26 1.36 1.29 1.23 1.26 1.18 1.12
1.36 1.45 1.58 1.63 1.65 1.62 1.63 1.54 1.46 1.42 1.13 1.01 0.99 1.01 1.05 1.15 1.10 1.06 1.05 0.99 0.90 0.84 0.82 0.79 0.80 0.88 1.09 1.27 1.38 1.34 1.46 1.54 1.55 1.54 1.43 1.30 1.32 1.38 1.49 1.43 1.37 1.31 1.27
1.45 1.50 1.65 1.64 1.60 1.52 1.43 1.39 1.27 1.11 1.11 1.12 1.18 1.27 1.21 1.11 1.06 1.05 1.02 1.02 1.01 0.94 0.90 0.91 0.85 0.82 0.86 0.88 0.90 1.11 1.26 1.28 1.41 1.52 1.53 1.44 1.38 1.26 1.37 1.48 1.36 1.30 1.14
1.34 1.55 1.57 1.57 1.56 1.46 1.46 1.21 1.22 1.23 1.25 1.30 1.25 1.24 1.25 1.12 1.00 1.04 1.06 1.04 0.96 0.96 1.00 0.96 0.96 0.97 0.95 0.91 0.85 0.82 0.81 1.02 1.19 1.24 1.35 1.38 1.35 1.29 1.33 1.50 1.42 1.26 1.23
1.66 1.58 1.62 1.62 1.52 1.40 1.26 1.27 1.28 1.29 1.30 1.30 1.33 1.28 1.17 1.13 1.13 1.08 1.04 1.05 1.07 1.07 1.04 1.01 1.04 1.01 0.95 0.92 0.88 0.89 0.86 0.92 0.93 0.96 1.08 1.17 1.19 1.24 1.21 1.20 1.37 1.42 1.30
1.74 1.59 1.50 1.49 1.34 1.33 1.36 1.41 1.35 1.33 1.35 1.31 1.20 1.15 1.09 1.08 1.00 0.93 0.94 0.98 1.02 1.00 1.03 1.12 1.12 1.06 0.98 0.93 0.90 0.86 0.83 0.87 0.85 0.88 0.83 0.77 0.77 0.77 0.82 0.92 1.10 1.24 1.39
1.74 1.71 1.46 1.36 1.36 1.38 1.32 1.28 1.31 1.31 1.22 1.15 1.04 0.92 0.91 0.95 0.96 0.95 0.94 0.93 0.93 0.95 0.98 0.96 0.91 0.91 0.92 0.90 0.88 0.84 0.82 0.75 0.72 0.73 0.75 0.75 0.78 0.80 0.83 0.80 0.76 0.91 1.18
1.87 1.57 1.46 1.44 1.40 1.40 1.39 1.42 1.36 1.31 1.18 1.05 0.95 0.93 0.94 0.97 0.98 1.02 1.04 1.02 0.99 0.94 0.92 0.89 0.88 0.87 0.85 0.85 0.83 0.79 0.78 0.76 0.73 0.70 0.71 0.77 0.84 0.88 0.88 0.94 0.85 0.83 0.79
1.43 1.46 1.44 1.30 1.31 1.30 1.34 1.32 1.23 1.16 1.15 1.02 1.03 1.00 0.95 0.94 1.01 1.05 1.06 1.02 0.96 0.93 0.88 0.86 0.82 0.80 0.79 0.79 0.79 0.82 0.86 0.86 0.81 0.81 0.78 0.82 0.86 0.88 0.92 0.98 0.98 0.91 0.83
1.33 1.27 1.29 1.19 1.07 1.06 1.10 1.12 1.19 1.19 1.19 1.19 1.19 1.10 1.05 1.01 0.99 0.95 0.93 0.93 0.94 0.92 0.84 0.80 0.80 0.81 0.80 0.83 0.86 0.88 0.93 0.95 0.95 0.93 0.87 0.87 0.91 0.96 0.99 1.01 1.00 0.97 0.86
1.18 1.17 1.22 1.20 1.12 1.09 1.11 1.09 1.05 1.16 1.21 1.17 1.07 0.94 0.84 0.80 0.83 0.87 0.88 0.86 0.84 0.83 0.79 0.82 0.81 0.84 0.91 0.98 0.97 0.96 0.96 1.06 1.12 1.09 1.07 1.05 1.01 0.92 0.91 0.99 1.01 1.01 1.00
1.31 1.26 1.19 1.18 1.15 1.12 1.09 1.06 1.05 0.99 0.91 0.84 0.83 0.84 0.88 0.93 0.91 0.86 0.82 0.81 0.79 0.86 0.88 0.92 0.97 1.02 1.05 1.06 1.07 1.07 1.08 1.08 1.10 1.13 1.13 1.09 1.11 1.11 1.04 0.96 0.99 1.00 1.00
1.18 1.11 1.10 1.07 1.02 0.97 0.94 0.91 0.88 0.83 0.81 0.86 0.93 0.97 0.96 0.93 0.87 0.86 0.94 0.95 0.94 0.94 0.95 0.96 1.00 1.02 1.02 1.02 1.03 1.06 1.09 1.09 1.11 1.12 1.10 1.10 1.10 1.09 1.09 1.10 1.09 1.07 1.06
1.05 0.96 0.90 0.85 0.81 0.84 0.87 0.84 0.81 0.82 0.84 0.84 0.85 0.82 0.82 0.83 0.88 0.99 1.02 1.01 0.98 0.95 1.01 1.06 1.10 1.12 1.11 1.11 1.11 1.12 1.11 1.10 1.11 1.10 1.11 1.12 1.10 1.09 1.04 1.08 1.12 1.11 1.20
0.90 0.85 0.82 0.84 0.81 0.75 0.67 0.65 0.72 0.81 0.84 0.83 0.81 0.86 0.94 0.98 1.01 1.02 1.03 1.00 1.00 1.07 1.09 1.10 1.12 1.13 1.14 1.15 1.15 1.14 1.13 1.13 1.13 1.12 1.12 1.11 1.10 1.05 1.05 1.04 1.05 1.15 1.12
0.76 0.78 0.76 0.66 0.61 0.61 0.72 0.89 0.93 0.94 0.94 0.94 1.00 1.07 1.08 1.06 1.06 1.05 1.04 1.07 1.12 1.15 1.15 1.14 1.14 1.16 1.17 1.16 1.15 1.14 1.13 1.14 1.17 1.18 1.17 1.15 1.11 1.08 1.06 1.04 1.06 1.07 1.15
0.79 0.74 0.64 0.65 0.63 0.71 0.83 0.95 0.99 1.01 1.02 1.04 1.05 1.05 1.05 1.06 1.08 1.09 1.12 1.13 1.14 1.16 1.18 1.17 1.16 1.16 1.17 1.17 1.19 1.17 1.14 1.14 1.19 1.23 1.20 1.20 1.16 1.10 1.08 1.04 1.03 1.04 1.13
0.78 0.71 0.68 0.64 0.67 0.72 0.87 0.98 1.03 1.04 1.05 1.04 1.04 1.04 1.03 1.04 1.06 1.11 1.12 1.11 1.13 1.16 1.18 1.18 1.18 1.17 1.11 1.09 1.16 1.20 1.22 1.24 1.25 1.24 1.23 1.22 1.23 1.20 1.16 1.12 1.13 1.15 1.18
0.70 0.68 0.66 0.66 0.69 0.74 0.86 1.00 1.03 1.04 1.04 1.03 1.01 0.98 0.97 0.99 1.03 1.01 1.02 1.02 1.06 1.10 1.13 1.15 1.16 1.16 1.06 1.05 1.05 1.06 1.14 1.22 1.29 1.31 1.29 1.28 1.27 1.26 1.21 1.20 1.23 1.25 1.24
0.70 0.65 0.65 0.68 0.69 0.76 0.83 0.88 0.90 0.92 0.93 0.90 0.87 0.88 0.88 0.86 0.87 0.89 0.91 0.93 0.92 0.95 1.00 1.06 1.09 1.10 1.10 1.06 1.07 1.07 1.07 1.12 1.21 1.29 1.32 1.31 1.30 1.31 1.33 1.35 1.36 1.37 1.33
Wind_Speed
9 9 9 9 8 8 8 9 9 9 9 11 12 13 15 18 19 20 21 23 21 24 26 12 15 15 14 14 13 13 12 11 11 12 13 14 15 14 13 9 10 11 13
10 10 10 9 8 8 8 9 9 10 11 11 12 14 17 19 20 21 23 23 22 23 20 17 18 16 16 15 15 15 14 14 14 15 15 15 16 15 13 11 13 15 15
12 10 11 10 9 8 8 8 8 8 9 10 12 16 18 21 22 23 23 24 24 23 22 20 20 19 19 17 17 17 17 16 16 16 16 16 16 15 14 14 12 13 13
14 12 10 11 10 8 8 7 8 9 10 12 14 17 19 21 23 24 24 25 25 24 23 23 22 21 21 20 20 19 18 19 18 18 17 17 17 16 15 14 15 15 15
15 14 12 11 10 11 10 9 9 10 12 13 15 17 19 21 22 23 25 26 26 26 25 24 24 24 24 23 22 22 21 20 20 20 20 19 18 16 14 12 13 14 15
17 16 14 12 11 10 10 11 12 12 13 13 15 18 20 23 24 26 27 27 27 27 27 27 26 26 25 25 24 24 23 23 22 21 20 20 19 17 15 14 13 13 14
17 17 16 15 14 14 14 13 12 13 14 16 19 21 24 27 28 30 30 30 30 30 30 29 29 27 27 27 26 26 26 25 25 24 23 22 21 20 19 18 16 16 16
17 17 17 17 16 15 14 14 14 15 17 20 22 25 27 31 33 33 34 34 33 32 32 31 31 30 30 30 30 29 27 26 26 26 25 25 24 24 23 22 21 20 20
20 20 20 18 16 15 15 16 17 18 21 23 26 29 33 36 36 36 34 33 33 32 31 31 31 31 30 30 30 31 31 30 29 29 28 28 28 27 26 25 24 22 22
22 20 18 17 17 17 17 18 20 23 25 28 31 34 36 37 37 36 36 35 34 34 33 33 32 32 32 32 32 32 31 31 31 31 31 31 30 29 29 29 29 27 25
23 20 18 18 18 19 21 23 25 28 30 33 36 37 37 38 38 37 37 37 37 37 36 35 34 34 34 34 35 35 35 35 34 34 34 34 34 33 32 32 31 30 29
22 19 17 18 20 22 24 26 29 32 36 38 39 39 37 36 38 40 39 39 38 38 39 38 38 38 38 38 37 37 37 37 37 37 37 36 36 36 35 35 35 34 33
18 16 15 18 21 25 28 32 34 36 37 37 38 37 38 39 38 38 36 35 35 36 36 37 39 41 42 42 42 42 43 41 40 39 38 37 36 35 35 35 35 35 35
13 15 14 21 25 29 32 34 36 37 38 38 38 38 38 36 36 34 33 32 33 33 34 34 36 38 39 40 41 41 41 42 42 42 41 40 38 36 35 34 33 33 33
24 17 19 24 30 32 34 36 35 34 35 36 37 36 35 34 34 34 34 35 35 36 37 38 38 38 39 39 39 39 39 39 40 40 41 40 39 38 36 34 33 32 32
18 24 25 31 31 32 32 33 32 32 34 36 37 37 34 33 34 35 35 36 38 39 39 40 41 42 42 41 39 38 37 37 37 36 38 39 38 37 37 36 34 33 32
24 26 26 28 31 32 31 32 34 36 38 37 33 31 33 35 37 38 39 40 41 41 41 42 42 41 39 38 37 36 36 35 35 35 35 34 36 38 37 35 35 33 32
24 26 29 29 29 31 34 35 36 36 34 32 33 35 37 39 41 42 42 42 41 39 38 37 37 37 37 37 36 36 35 35 34 34 33 34 34 34 34 34 34 34 33
25 26 28 29 31 33 33 31 31 32 34 36 38 39 40 41 41 40 37 33 32 32 34 35 37 37 37 37 37 37 36 35 35 36 36 35 35 35 34 34 33 33 32
24 25 27 28 28 27 28 31 34 35 37 38 39 39 37 37 33 29 27 27 28 30 31 33 34 32 31 31 32 33 34 35 35 35 35 35 35 35 35 35 34 32 31
23 24 24 25 25 28 31 33 35 36 35 34 31 29 27 24 22 22 22 23 25 26 28 29 27 25 24 24 25 26 27 29 30 31 32 34 35 35 36 36 36 35 32
24 24 24 23 27 29 31 30 29 27 25 22 21 19 20 19 19 19 19 21 22 24 25 23 23 22 23 23 23 25 26 25 25 26 28 29 31 33 33 34 34 35 35
21 19 20 22 25 26 26 23 21 19 19 18 18 18 18 18 18 17 18 20 21 21 22 22 22 22 23 22 22 23 22 21 21 22 23 24 26 28 29 31 33 33 33
17 17 19 20 22 23 22 19 16 16 16 16 17 19 19 16 17 17 18 20 22 20 20 21 21 22 23 22 22 21 21 19 18 16 15 15 17 19 22 25 26 28 30
16 16 16 17 19 19 18 16 15 14 15 15 16 17 17 16 16 18 19 19 20 21 21 21 22 23 23 23 23 22 21 20 17 14 8 8 10 13 14 17 20 21 24
14 14 14 15 16 16 14 13 14 13 13 13 14 15 16 17 17 17 18 19 20 21 21 21 23 23 23 23 24 24 23 21 17 14 11 4 4 5 7 10 12 13 16
Wind_Direction
222 228 231 238 248 259 275 287 300 305 289 281 286 292 299 309 310 308 307 306 315 334 358 312 303 305 308 315 318 323 325 322 314 310 304 306 307 308 317 245 253 253 251
227 232 231 237 248 259 273 287 295 302 296 287 288 294 302 308 310 310 310 309 312 317 327 320 315 309 303 303 304 305 308 309 311 308 307 306 306 302 297 276 271 266 260
230 233 231 238 245 256 270 281 297 308 309 300 297 301 304 308 308 309 309 309 309 310 312 308 306 305 303 300 297 297 297 298 298 302 308 309 309 304 293 277 275 273 268
230 231 233 237 242 253 266 277 294 305 305 307 306 307 309 310 309 309 309 308 307 306 306 304 303 301 300 297 292 292 293 291 291 292 297 303 308 309 299 282 272 270 269
229 231 237 233 242 252 262 271 287 299 306 309 313 314 314 315 314 313 312 309 307 304 302 300 299 298 296 294 292 290 289 289 288 288 288 293 298 300 299 295 279 273 272
230 230 230 231 243 249 255 273 283 293 303 307 315 316 316 316 315 312 311 310 306 304 300 298 297 296 293 292 290 288 286 285 284 285 285 284 287 289 288 288 283 280 280
231 228 228 235 246 255 265 272 278 289 298 304 307 311 312 312 311 309 307 305 302 301 298 295 293 292 291 289 288 286 285 283 280 281 281 279 279 281 281 281 278 276 276
235 236 239 247 255 259 264 270 278 289 296 302 304 306 308 309 309 306 303 302 300 298 296 294 291 290 288 287 285 283 281 282 279 278 276 276 276 277 275 276 275 275 275
240 243 246 252 253 258 264 270 278 286 295 301 302 305 307 307 307 305 303 300 299 298 295 294 292 290 287 287 286 283 279 278 277 275 273 273 273 274 273 272 271 270 272
238 239 239 245 256 264 268 273 282 290 294 299 303 307 305 306 306 305 302 299 296 294 293 291 291 291 288 286 283 282 280 278 276 275 273 272 271 270 270 269 267 266 268
226 226 238 249 256 265 273 280 286 292 296 298 302 305 305 306 305 304 302 298 293 290 289 289 289 289 288 286 283 280 277 276 275 274 272 272 270 269 268 267 266 264 264
225 227 239 252 264 273 280 286 290 293 297 299 302 302 303 304 305 304 301 298 295 291 288 286 285 286 286 285 283 280 278 276 274 272 271 270 269 268 267 265 264 263 262
234 218 238 260 272 279 284 290 291 294 297 299 301 303 302 302 302 304 303 301 297 293 291 288 286 286 285 283 282 280 278 274 272 269 268 268 268 268 267 265 263 262 261
218 266 263 275 287 286 291 291 294 293 296 298 301 301 302 301 301 302 302 302 302 299 297 294 293 291 288 286 284 281 277 274 271 268 266 266 265 265 265 264 262 261 257
279 277 275 287 292 291 293 294 297 298 299 301 302 303 303 301 301 302 301 300 299 298 297 295 294 292 291 289 287 283 278 275 272 268 266 264 263 262 261 261 261 259 258
278 289 289 298 298 298 299 298 299 299 301 302 302 302 303 302 302 302 301 300 299 298 296 295 293 292 290 288 286 283 279 275 272 270 266 263 261 260 259 258 258 257 258
291 294 297 298 299 299 300 301 301 301 302 303 303 305 305 304 304 302 300 300 299 298 296 295 294 293 291 288 285 283 279 275 273 269 266 264 262 260 257 257 255 255 254
294 297 299 299 300 301 303 303 303 303 303 304 305 305 306 305 303 301 300 299 299 299 298 298 298 296 292 289 286 283 280 275 272 269 266 263 260 259 258 255 255 254 253
297 298 300 301 302 304 305 306 307 307 307 307 306 305 306 306 304 302 300 301 302 303 304 304 301 297 293 290 287 283 279 276 272 269 266 262 259 257 256 255 254 253 254
299 302 304 306 308 309 310 311 311 311 310 308 307 307 307 309 308 305 304 306 307 309 311 311 311 305 301 295 291 288 282 277 271 267 265 262 258 256 254 253 252 251 252
302 305 308 311 313 315 316 316 316 315 313 313 312 313 316 318 317 315 314 315 317 319 321 322 321 319 313 308 304 300 295 287 274 268 265 261 258 255 252 251 250 249 248
306 309 312 316 318 321 322 323 326 329 332 332 333 331 332 331 329 328 328 328 328 329 333 333 333 331 326 320 315 312 305 296 285 275 268 264 259 254 252 249 247 245 246
309 312 315 320 324 327 327 329 332 340 343 346 347 347 346 344 343 344 345 344 343 342 344 343 342 342 342 339 332 328 323 315 298 282 275 266 260 254 250 247 244 242 242
312 314 317 323 329 334 335 333 333 337 341 345 348 348 348 348 350 352 350 351 353 352 351 352 352 351 352 351 348 345 343 335 327 305 287 270 261 254 247 243 240 239 238
314 317 320 326 330 336 342 346 343 341 341 344 348 352 355 357 356 355 356 358 360 2 1 1 1 1 359 0 360 357 354 354 350 343 307 275 268 255 249 243 238 236 241
316 320 323 329 335 340 343 349 355 1 1 1 3 6 9 10 9 8 5 5 5 5 4 7 6 6 7 9 8 8 8 7 8 11 19 353 321 275 246 237 230 232 236